Location: Hac?musa Deresi
(39.1694°N, 32.2508°E)
Time: 10:07:23
(UTC+00:00)

CZ-4B R/B - Pass Details

Date: 22 April 2026
Orbit: 442 x 560 km, 97.8° (Epoch: 12 May)

Event Time Altitude Azimuth Distance (km) Brightness Sun altitude
Exits shadow 18:53:35 22° 20° (NNE) 1,051 4.4 -24.2°
Drops below altitude 10° 18:55:04 10° 5° (N) 1,596 5.6 -24.4°
Sets 18:57:10 0° 357° (N) 2,461 6.8 -24.7°
